Date,TemperatureHighF,TemperatureAvgF,TemperatureLowF,DewpointHighF,DewpointAvgF,DewpointLowF,HumidityHigh,HumidityAvg,HumidityLow,PressureMaxIn,PressureMinIn,WindSpeedMaxMPH,WindSpeedAvgMPH,GustSpeedMaxMPH,PrecipitationSumIn
2013-2-1,40.6,39.3,35.2,30.9,27.7,24.3,72,63,58,30.22,30.12,15,3,15,0.00
2013-2-4,48.7,39.7,30.3,30.9,28.1,25.4,82,64,44,30.12,30.01,3,0,10,0.00
2013-2-5,56.6,48.5,39.8,48.7,39.9,30.1,90,72,59,30.03,29.95,3,0,10,0.00
2013-2-6,63.9,52.3,41.3,48.9,40.1,34.2,97,69,35,30.16,30.02,2,0,8,0.00
2013-2-7,51.9,46.1,43.0,44.0,39.7,33.2,96,81,49,30.11,29.92,1,0,10,0.23
2013-2-8,52.2,45.8,36.2,48.0,42.8,31.5,97,90,67,30.17,29.92,6,2,22,0.10
2013-2-9,63.9,44.8,30.4,34.5,30.6,28.1,91,63,30,30.30,30.14,3,1,8,0.00
2013-2-10,58.0,49.1,42.4,49.5,44.5,29.6,97,85,54,30.28,30.02,7,1,10,1.29
2013-2-11,54.7,50.7,47.6,54.0,49.7,45.2,98,97,92,30.12,30.00,7,1,7,0.22
2013-2-12,53.1,46.6,42.5,45.4,41.2,35.3,95,83,52,30.11,29.82,8,1,8,0.18
2013-2-13,51.4,43.5,36.9,48.6,40.9,33.1,98,91,80,29.96,29.72,16,2,16,0.09
2013-2-14,53.9,44.0,37.0,36.7,34.0,31.8,86,69,46,30.08,29.96,17,3,17,0.00
2013-2-15,61.4,47.8,38.4,41.0,36.0,32.4,85,66,38,30.11,29.97,14,2,14,0.01
2013-2-16,42.2,35.5,27.8,35.2,22.3,12.3,80,60,38,30.15,29.95,25,4,25,0.00
2013-2-17,44.0,33.1,22.8,18.7,15.4,11.2,70,50,31,30.31,30.14,15,2,16,0.00
2013-2-18,58.2,44.7,32.3,30.0,24.3,17.3,60,45,34,30.35,30.09,13,2,16,0.00
2013-2-19,54.4,44.9,38.2,47.4,32.1,18.9,97,65,31,30.15,29.98,16,3,21,0.43
2013-2-20,47.5,39.6,31.2,19.7,16.0,10.2,59,39,24,30.19,30.10,19,4,19,0.00
2013-2-21,64.8,47.4,29.9,41.2,24.3,17.1,86,43,23,30.19,29.94,9,2,9,0.16
2013-2-22,45.0,40.7,39.5,42.4,39.3,38.3,97,95,87,30.12,30.00,7,1,8,1.49
2013-2-23,50.4,45.0,39.5,48.2,43.8,38.7,100,96,91,30.03,29.84,8,1,8,0.85
2013-2-24,60.3,48.8,38.8,46.2,36.5,28.2,97,67,32,30.03,29.90,10,2,13,0.00
2013-2-25,48.7,45.0,38.5,39.4,32.7,28.5,94,63,50,30.01,29.82,9,1,12,0.03
2013-2-26,48.8,40.5,35.5,46.9,37.9,34.3,97,91,75,29.83,29.53,10,1,11,1.42
2013-2-27,58.2,46.9,39.3,38.2,34.4,31.1,79,63,43,29.90,29.78,20,2,20,0.00
2013-2-28,46.0,39.3,34.9,36.1,29.9,24.7,82,69,55,30.00,29.84,16,4,24,0.00